SCP
5 6 6 3 2 1 1 1 0 0 0 0 0 0 0 0 0 0 0 0 0 0
7 4 2 2 2 1 1 0 0 0 0 0 0 0 0 0 0 0 0 0 0 0
4 2 2 2 2 1 1 0 0 0 0 0 0 0 0 0 0 0 0 0 0 0
3 2 1 1 1 1 0 0 0 0 0 0 0 0 0 0 0 0 0 0 0 0
3 2 1 1 1 1 0 0 0 0 0 0 0 0 0 0 0 0 0 0 0 0
3 2 1 0 0 0 0 0 0 0 0 0 0 0 0 0 0 0 0 0 0 0
1 0 0 0 0 0 0 0 0 0 0 0 0 0 0 0 0 0 0 0 0 0
0 0 0 0 0 0 0 0 0 0 0 0 0 0 0 0 0 0 0 0 0 0
0 0 0 0 0 0 0 0 0 0 0 0 0 0 0 0 0 0 0 0 0 0
0 0 0 0 0 0 0 0 0 0 0 0 0 0 0 0 0 0 0 0 0 0
0 0 0 0 0 0 0 0 0 0 0 0 0 0 0 0 0 0 0 0 0 0
0 0 0 0 0 0 0 0 0 0 0 0 0 0 0 0 0 0 0 0 0 0
0 0 0 0 0 0 0 0 0 0 0 0 0 0 0 0 0 0 0 0 0 0
0 0 0 0 0 0 0 0 0 0 0 0 0 0 0 0 0 0 0 0 0 0
Wind_Speed_500mb
70 64 80 75 65 65 58 53 50 42 30 24 30 20 17 19 17 19 15 13 14 8
73 76 74 58 55 58 56 55 43 34 30 30 36 30 24 19 19 15 13 19 18 10
87 65 61 55 60 57 58 48 45 39 42 41 31 26 21 17 15 12 11 9 15 10
78 62 58 59 56 61 61 58 51 53 43 36 35 27 23 14 7 6 8 9 12 14
72 66 62 60 65 69 64 59 58 54 46 34 28 24 17 12 4 4 4 7 9 13
77 70 71 71 71 69 67 62 53 47 37 32 27 22 16 9 7 2 7 8 10 13
82 76 78 79 76 65 57 58 51 41 38 32 25 19 14 11 13 11 8 8 8 12
86 84 86 80 65 61 57 52 47 43 37 32 26 21 20 18 15 12 11 11 12 20
89 94 87 77 72 68 58 51 46 42 37 33 24 24 25 22 17 15 12 10 12 18
101 98 86 79 73 65 58 52 45 39 32 28 28 28 25 27 19 17 14 12 11 10
103 99 87 78 71 64 58 50 44 38 34 33 32 30 24 25 18 13 11 12 13 15
98 96 88 82 76 67 58 50 43 39 38 35 36 33 32 24 17 15 14 19 21 21
82 89 90 83 72 62 53 49 44 43 39 37 34 30 36 26 12 13 12 16 23 27
95 96 88 79 68 61 54 51 49 45 40 36 33 33 36 32 17 11 10 9 13 26
Wind_Direction_500mb
168 170 183 188 191 192 183 172 170 172 175 178 179 205 233 217 247 277 281 295 298 311
172 184 185 186 187 182 177 171 184 195 179 193 172 197 205 211 235 252 279 312 306 325
185 180 182 177 179 178 174 173 169 174 178 180 186 190 201 217 231 250 288 317 316 322
178 171 167 172 173 174 169 170 172 175 180 177 191 195 210 221 227 272 291 298 324 342
171 161 167 164 170 169 165 166 172 172 177 178 185 179 182 169 169 229 287 4 15 13
158 163 165 170 166 162 166 169 164 165 173 171 170 181 181 184 182 212 85 64 46 26
161 164 166 163 162 160 160 158 160 163 163 169 164 157 165 152 129 115 92 61 39 17
162 164 162 160 154 152 149 151 155 154 154 150 147 142 132 130 119 104 88 74 18 1
158 161 159 157 152 154 146 146 150 152 151 157 161 157 148 127 116 103 88 69 54 3
160 160 158 155 155 149 149 150 148 148 153 152 149 149 149 125 107 96 81 65 54 31
160 159 154 151 149 151 150 148 144 143 146 145 139 136 135 109 103 100 96 80 61 33
160 157 151 150 150 145 144 142 134 134 137 140 136 138 124 107 99 94 69 60 46 37
148 148 149 149 145 139 137 128 127 131 134 135 135 134 118 119 116 98 72 38 22 33
144 146 144 141 138 138 134 131 125 128 132 134 136 137 137 131 120 101 91 71 29 28
Wind_Speed_850mb
70 64 80 75 65 65 58 53 50 42 30 24 30 20 17 19 17 19 15 13 14 8
73 76 74 58 55 58 56 55 43 34 30 30 36 30 24 19 19 15 13 19 18 10
87 65 61 55 60 57 58 48 45 39 42 41 31 26 21 17 15 12 11 9 15 10
78 62 58 59 56 61 61 58 51 53 43 36 35 27 23 14 7 6 8 9 12 14
72 66 62 60 65 69 64 59 58 54 46 34 28 24 17 12 4 4 4 7 9 13
77 70 71 71 71 69 67 62 53 47 37 32 27 22 16 9 7 2 7 8 10 13
82 76 78 79 76 65 57 58 51 41 38 32 25 19 14 11 13 11 8 8 8 12
86 84 86 80 65 61 57 52 47 43 37 32 26 21 20 18 15 12 11 11 12 20
89 94 87 77 72 68 58 51 46 42 37 33 24 24 25 22 17 15 12 10 12 18
101 98 86 79 73 65 58 52 45 39 32 28 28 28 25 27 19 17 14 12 11 10
103 99 87 78 71 64 58 50 44 38 34 33 32 30 24 25 18 13 11 12 13 15
98 96 88 82 76 67 58 50 43 39 38 35 36 33 32 24 17 15 14 19 21 21
82 89 90 83 72 62 53 49 44 43 39 37 34 30 36 26 12 13 12 16 23 27
95 96 88 79 68 61 54 51 49 45 40 36 33 33 36 32 17 11 10 9 13 26
Wind_Direction_850mb
168 170 183 188 191 192 183 172 170 172 175 178 179 205 233 217 247 277 281 295 298 311
172 184 185 186 187 182 177 171 184 195 179 193 172 197 205 211 235 252 279 312 306 325
185 180 182 177 179 178 174 173 169 174 178 180 186 190 201 217 231 250 288 317 316 322
178 171 167 172 173 174 169 170 172 175 180 177 191 195 210 221 227 272 291 298 324 342
171 161 167 164 170 169 165 166 172 172 177 178 185 179 182 169 169 229 287 4 15 13
158 163 165 170 166 162 166 169 164 165 173 171 170 181 181 184 182 212 85 64 46 26
161 164 166 163 162 160 160 158 160 163 163 169 164 157 165 152 129 115 92 61 39 17
162 164 162 160 154 152 149 151 155 154 154 150 147 142 132 130 119 104 88 74 18 1
158 161 159 157 152 154 146 146 150 152 151 157 161 157 148 127 116 103 88 69 54 3
160 160 158 155 155 149 149 150 148 148 153 152 149 149 149 125 107 96 81 65 54 31
160 159 154 151 149 151 150 148 144 143 146 145 139 136 135 109 103 100 96 80 61 33
160 157 151 150 150 145 144 142 134 134 137 140 136 138 124 107 99 94 69 60 46 37
148 148 149 149 145 139 137 128 127 131 134 135 135 134 118 119 116 98 72 38 22 33
144 146 144 141 138 138 134 131 125 128 132 134 136 137 137 131 120 101 91 71 29 28